ARIANE 5 R/B, 27716

Orbit data source: Space-Track

ARIANE 5 R/B, 27716 is space debris in HEO originally from a launch on Wed, 09 Apr 2003 UTC launched from the French Guiana (FRGUI). Debris objects in space refer to the collection of defunct objects orbiting the Earth. Examples of debris include non-operational satellites, rocket bodies, and fragments generated from explosions, collisions, or faulty payload assembly.

Loading next visibility...
Identifier
27716, 2003-013C
Orbit
HEO
Country
Flag of FRFR
Related business
Manufacturer
Astrium
Mission
Spacecraft
Bus & Motor
EPS, AESTUS
Mass
~1,190 kg wet, 1,190 kg dry
Launch date (UTC)
2003-04-09 (23 years ago)
Launch vehicle
Unknown
Launch site
French Guiana (FRGUI)
Object type
Payload
Rocket body
Debris
Shape & HBR
Cone + Cyl, 2.7 m
Radar Cross Section
25.858 m², Large (>1 m²)

Expand to show TLE details & history
Last TLE update: 15 hours ago

TLE from 15 hours ago
0 ARIANE 5 R/B
1 27716U 03013C   25340.78867416 -.00000001  00000-0  52823-2 0  9995
2 27716   1.5658 296.8335 7061468 264.4252 199.6213  2.24037844185529
Epoch: 2025-12-06T18:55Z
TLE epoch observation values (Epoch: 2025-12-06T18:55:41.447Z)
Latitude
1.5752°
Longitude
26.36986°
Altitude
35,355.935 km
Speed
1.716 km/s
True Right ascension
01h 44m 24s
True Declination
1° 34' 25"
Sunlit
Object was in daylight at epoch
Visualization orbit readout
Latitude
Unknown
Longitude
Unknown
Altitude
Unknown
Speed
Unknown
Apparent Right ascension
Unknown
Apparent Declination
Unknown
Sunlit
N/A
Visualization observer readout
Local Sidereal Time
07:36:43
Azimuth
Unknown
Elevation
Unknown
Doppler factor
Unknown
Orbital elements
Apogee altitude
35,722.888 km
Perigee altitude
873.01 km
Semi-major axis
24,676.086 km
Eccentricity
0.70615
Inclination
1.5658°
RAAN
296.8335°
Arg. of periapsis
264.4252°
True anomaly
184.79951°
Mean anomaly
199.6213°
Eccentric anomaly
191.53252°
Mean motion
0.55992 °/min
Orbital period
642.94 mins
BSTAR
0.0052823
Loading maneuver chart data...
Computing Atmospheric mass density...
Loading historical data...
Loading historical data...
Loading historical data...
Loading historical data...
Loading historical data...
Loading historical data...
Loading historical data...
Other satellites on launch #13 in the year 2003 (2003-04-09 UTC)

Documentation

Showing up to 5 results
|